,,,PA_Meas_PMT16A,,PR_Meas_QMR101_102,,RH_Meas_QMH101,,SR_Meas_QMS101,,TA_Meas_QMH101,,GenWind,,GenWind,
date,time,status,PA,status,PR,status,RH,status,SR,status,TA,status,DirAvg,status,SpdAvg,
2012-04-10, 00:00:04,VALID,1001.82,VALID,0,VALID,95.5076,VALID,0,VALID,23.2524,VALID,61,VALID,0.606641,
2012-04-10, 00:01:04,VALID,1001.8,VALID,0,VALID,95.5228,VALID,0,VALID,23.2329,VALID,61,VALID,0.430469,
2012-04-10, 00:02:04,VALID,1001.81,VALID,0,VALID,95.5152,VALID,0,VALID,23.1921,VALID,43,VALID,0.546094,
2012-04-10, 00:03:04,VALID,1001.82,VALID,0,VALID,95.5228,VALID,0,VALID,23.1921,VALID,43,VALID,0.585938,
2012-04-10, 00:04:04,VALID,1001.81,VALID,0,VALID,95.5152,VALID,0,VALID,23.2134,VALID,43,VALID,0.688281,
2012-04-10, 00:05:04,VALID,1001.8,VALID,0,VALID,95.5305,VALID,0,VALID,23.1726,VALID,24,VALID,0.810938,
2012-04-10, 00:06:04,VALID,1001.81,VALID,0,VALID,95.5,VALID,0,VALID,23.1939,VALID,24,VALID,0.762109,
2012-04-10, 00:07:04,VALID,1001.79,VALID,0,VALID,95.5152,VALID,0,VALID,23.1939,VALID,24,VALID,0.852734,
2012-04-10, 00:08:04,VALID,1001.76,VALID,0,VALID,95.5,VALID,0,VALID,23.1939,VALID,24,VALID,0.901953,
2012-04-10, 00:09:04,VALID,1001.77,VALID,0,VALID,95.5228,VALID,0,VALID,23.1549,VALID,24,VALID,1.05469,
2012-04-10, 00:10:04,VALID,1001.73,VALID,0,VALID,95.5381,VALID,0,VALID,23.0946,VALID,24,VALID,0.952344,
2012-04-10, 00:11:04,VALID,1001.73,VALID,0,VALID,95.5534,VALID,0,VALID,23.0964,VALID,24,VALID,0.574219,
2012-04-10, 00:12:04,VALID,1001.7,VALID,0,VALID,95.5305,VALID,0,VALID,23.0769,VALID,24,VALID,0.527344,
2012-04-10, 00:13:04,VALID,1001.67,VALID,0,VALID,95.5381,VALID,0,VALID,23.0573,VALID,24,VALID,0.684766,
2012-04-10, 00:14:04,VALID,1001.61,VALID,0,VALID,95.5381,VALID,0,VALID,23.0361,VALID,32,VALID,0.887891,
2012-04-10, 00:15:04,VALID,1001.63,VALID,0,VALID,95.5381,VALID,0,VALID,23.0573,VALID,41,VALID,0.951172,
2012-04-10, 00:16:04,VALID,1001.66,VALID,0,VALID,95.5228,VALID,0,VALID,23.0769,VALID,48,VALID,1.08945,
2012-04-10, 00:17:04,VALID,1001.61,VALID,0,VALID,95.5152,VALID,0,VALID,23.0769,VALID,48,VALID,1.10938,
2012-04-10, 00:18:04,VALID,1001.58,VALID,0,VALID,95.5305,VALID,0,VALID,23.0964,VALID,48,VALID,1.01484,
2012-04-10, 00:19:04,VALID,1001.58,VALID,0,VALID,95.5076,VALID,0,VALID,23.0769,VALID,53,VALID,0.951563,
2012-04-10, 00:20:04,VALID,1001.54,VALID,0,VALID,95.5228,VALID,0,VALID,23.0573,VALID,53,VALID,0.898828,
2012-04-10, 00:21:04,VALID,1001.51,VALID,0,VALID,95.5381,VALID,0,VALID,23.0573,VALID,53,VALID,0.951953,
2012-04-10, 00:22:04,VALID,1001.52,VALID,0,VALID,95.5534,VALID,0,VALID,23.0378,VALID,53,VALID,0.841016,
2012-04-10, 00:23:04,VALID,1001.47,VALID,0,VALID,95.561,VALID,0,VALID,23.0183,VALID,53,VALID,0.755859,
2012-04-10, 00:24:04,VALID,1001.44,VALID,0,VALID,95.5381,VALID,0,VALID,22.9988,VALID,53,VALID,0.700781,
2012-04-10, 00:25:04,VALID,1001.41,VALID,0,VALID,95.561,VALID,0,VALID,22.9793,VALID,52,VALID,0.586719,
2012-04-10, 00:26:04,VALID,1001.42,VALID,0,VALID,95.561,VALID,0,VALID,22.9385,VALID,49,VALID,0.466797,
2012-04-10, 00:27:04,VALID,1001.38,VALID,0,VALID,95.5457,VALID,0,VALID,22.9403,VALID,46,VALID,0.48125,
2012-04-10, 00:28:04,VALID,1001.35,VALID,0,VALID,95.561,VALID,0,VALID,22.9403,VALID,46,VALID,0.330078,
2012-04-10, 00:29:04,VALID,1001.35,VALID,0,VALID,95.5457,VALID,0,VALID,22.8995,VALID,46,VALID,0.152344,
2012-04-10, 00:30:04,VALID,1001.34,VALID,0,VALID,95.5457,VALID,0,VALID,22.9208,VALID,46,VALID,0,
2012-04-10, 00:31:04,VALID,1001.31,VALID,0,VALID,95.5534,VALID,0,VALID,22.9013,VALID,46,VALID,0.397266,
2012-04-10, 00:32:04,VALID,1001.29,VALID,0,VALID,95.5457,VALID,0,VALID,22.8995,VALID,46,VALID,0.440625,
2012-04-10, 00:33:04,VALID,1001.25,VALID,0,VALID,95.5381,VALID,0,VALID,22.9208,VALID,46,VALID,0.512891,
2012-04-10, 00:34:04,VALID,1001.25,VALID,0,VALID,95.5228,VALID,0,VALID,22.9598,VALID,49,VALID,0.788281,
2012-04-10, 00:35:04,VALID,1001.23,VALID,0,VALID,95.5076,VALID,0,VALID,22.9598,VALID,49,VALID,0.794141,
2012-04-10, 00:36:04,VALID,1001.23,VALID,0,VALID,95.5228,VALID,0,VALID,22.9581,VALID,49,VALID,0.720312,
2012-04-10, 00:37:04,VALID,1001.23,VALID,0,VALID,95.5152,VALID,0,VALID,22.9581,VALID,49,VALID,0.627734,
2012-04-10, 00:38:04,VALID,1001.2,VALID,0,VALID,95.5228,VALID,0,VALID,22.9598,VALID,49,VALID,0.733984,
2012-04-10, 00:39:04,VALID,1001.23,VALID,0,VALID,95.5076,VALID,0,VALID,22.9385,VALID,49,VALID,0.737891,
2012-04-10, 00:40:04,VALID,1001.23,VALID,0,VALID,95.5152,VALID,0,VALID,22.9598,VALID,49,VALID,0.732422,
2012-04-10, 00:41:04,VALID,1001.23,VALID,0,VALID,95.5381,VALID,0,VALID,22.9598,VALID,49,VALID,0.625781,
2012-04-10, 00:42:04,VALID,1001.21,VALID,0,VALID,95.5305,VALID,0,VALID,22.9385,VALID,49,VALID,0.565234,
2012-04-10, 00:43:04,VALID,1001.17,VALID,0,VALID,95.5305,VALID,0,VALID,22.9403,VALID,49,VALID,0.488672,
2012-04-10, 00:44:04,VALID,1001.14,VALID,0,VALID,95.5228,VALID,0,VALID,22.9208,VALID,49,VALID,0.371875,
2012-04-10, 00:45:04,VALID,1001.13,VALID,0,VALID,95.5457,VALID,0,VALID,22.9013,VALID,49,VALID,0.269922,
2012-04-10, 00:46:04,VALID,1001.1,VALID,0,VALID,95.5457,VALID,0,VALID,22.8818,VALID,49,VALID,0.172266,
2012-04-10, 00:47:04,VALID,1001.08,VALID,0,VALID,95.561,VALID,0,VALID,22.8623,VALID,49,VALID,0,
2012-04-10, 00:48:04,VALID,1001.09,VALID,0,VALID,95.5457,VALID,0,VALID,22.841,VALID,49,VALID,0,
2012-04-10, 00:49:04,VALID,1001.05,VALID,0,VALID,95.5686,VALID,0,VALID,22.8427,VALID,49,VALID,0,
2012-04-10, 00:50:04,VALID,1001.06,VALID,0,VALID,95.5457,VALID,0,VALID,22.8232,VALID,49,VALID,0,
2012-04-10, 00:51:04,VALID,1001.07,VALID,0,VALID,95.561,VALID,0,VALID,22.8215,VALID,49,VALID,0.321484,
2012-04-10, 00:52:04,VALID,1001.07,VALID,0,VALID,95.5457,VALID,0,VALID,22.8427,VALID,49,VALID,0.503906,
2012-04-10, 00:53:04,VALID,1001.06,VALID,0,VALID,95.5152,VALID,0,VALID,22.8605,VALID,107,VALID,0.817578,
2012-04-10, 00:54:04,VALID,1001.06,VALID,0,VALID,95.5228,VALID,0,VALID,22.841,VALID,113,VALID,0.835547,
2012-04-10, 00:55:04,VALID,1001.07,VALID,0,VALID,95.5152,VALID,0,VALID,22.8818,VALID,113,VALID,0.904297,
2012-04-10, 00:56:04,VALID,1001.04,VALID,0,VALID,95.5,VALID,0,VALID,22.9013,VALID,113,VALID,0.883984,
2012-04-10, 00:57:04,VALID,1001.05,VALID,0,VALID,95.5152,VALID,0,VALID,22.8818,VALID,113,VALID,0.789063,
2012-04-10, 00:58:04,VALID,1001.04,VALID,0,VALID,95.5228,VALID,0,VALID,22.9013,VALID,113,VALID,0.803906,
2012-04-10, 00:59:04,VALID,1001.07,VALID,0,VALID,95.5305,VALID,0,VALID,22.9013,VALID,113,VALID,0.851953,
2012-04-10, 01:00:04,VALID,1001.08,VALID,0,VALID,95.5228,VALID,0,VALID,22.9208,VALID,113,VALID,0.821484,
2012-04-10, 01:01:04,VALID,1001.04,VALID,0,VALID,95.5,VALID,0,VALID,22.9403,VALID,130,VALID,0.926172,
2012-04-10, 01:02:04,VALID,1001.07,VALID,0,VALID,95.5381,VALID,0,VALID,22.9208,VALID,130,VALID,0.794531,
2012-04-10, 01:03:04,VALID,1001.04,VALID,0,VALID,95.5228,VALID,0,VALID,22.9208,VALID,130,VALID,0.661328,
2012-04-10, 01:04:04,VALID,1001.1,VALID,0,VALID,95.5381,VALID,0,VALID,22.9208,VALID,129,VALID,0.780469,
2012-04-10, 01:05:04,VALID,1001.08,VALID,0,VALID,95.5381,VALID,0,VALID,22.9013,VALID,123,VALID,0.579687,
2012-04-10, 01:06:04,VALID,1001.09,VALID,0,VALID,95.5457,VALID,0,VALID,22.9208,VALID,123,VALID,0.546094,
2012-04-10, 01:07:04,VALID,1001.09,VALID,0,VALID,95.561,VALID,0,VALID,22.8818,VALID,123,VALID,0.542578,
2012-04-10, 01:08:04,VALID,1001.08,VALID,0,VALID,95.5457,VALID,0,VALID,22.8818,VALID,123,VALID,0.635547,
2012-04-10, 01:09:04,VALID,1001.08,VALID,0,VALID,95.5305,VALID,0,VALID,22.8605,VALID,125,VALID,0.803906,
2012-04-10, 01:10:04,VALID,1001.04,VALID,0,VALID,95.5534,VALID,0,VALID,22.8818,VALID,125,VALID,0.461328,
2012-04-10, 01:11:04,VALID,1001.04,VALID,0,VALID,95.5457,VALID,0,VALID,22.8818,VALID,125,VALID,0.693359,
2012-04-10, 01:12:04,VALID,1001.04,VALID,0,VALID,95.5381,VALID,0,VALID,22.9013,VALID,172,VALID,0.755078,
2012-04-10, 01:13:04,VALID,1001.04,VALID,0,VALID,95.5228,VALID,0,VALID,22.88,VALID,171,VALID,1.10781,
2012-04-10, 01:14:04,VALID,1001.05,VALID,0,VALID,95.5305,VALID,0,VALID,22.9013,VALID,165,VALID,1.02695,
2012-04-10, 01:15:04,VALID,1001.08,VALID,0,VALID,95.5457,VALID,0,VALID,22.9013,VALID,171,VALID,1.10469,
2012-04-10, 01:16:04,VALID,1001.07,VALID,0,VALID,95.5228,VALID,0,VALID,22.8995,VALID,168,VALID,1.00195,
2012-04-10, 01:17:04,VALID,1001.11,VALID,0,VALID,95.5457,VALID,0,VALID,22.8995,VALID,168,VALID,0.767578,
2012-04-10, 01:18:04,VALID,1001.12,VALID,0,VALID,95.5457,VALID,0,VALID,22.9208,VALID,168,VALID,1.0582,
2012-04-10, 01:19:04,VALID,1001.11,VALID,0,VALID,95.5534,VALID,0,VALID,22.9013,VALID,153,VALID,1.04102,
2012-04-10, 01:20:04,VALID,1001.12,VALID,0,VALID,95.5457,VALID,0,VALID,22.9208,VALID,156,VALID,0.760547,
2012-04-10, 01:21:04,VALID,1001.12,VALID,0,VALID,95.5457,VALID,0,VALID,22.9208,VALID,157,VALID,0.778516,
2012-04-10, 01:22:04,VALID,1001.13,VALID,0,VALID,95.561,VALID,0,VALID,22.9403,VALID,157,VALID,0.990625,
2012-04-10, 01:23:04,VALID,1001.13,VALID,0,VALID,95.5534,VALID,0,VALID,22.9208,VALID,156,VALID,1.04375,
2012-04-10, 01:24:04,VALID,1001.14,VALID,0,VALID,95.5534,VALID,0,VALID,22.919,VALID,171,VALID,0.983203,
2012-04-10, 01:25:04,VALID,1001.14,VALID,0,VALID,95.561,VALID,0,VALID,22.9403,VALID,173,VALID,0.887109,
2012-04-10, 01:26:04,VALID,1001.15,VALID,0,VALID,95.5686,VALID,0,VALID,22.919,VALID,173,VALID,0.792578,
2012-04-10, 01:27:04,VALID,1001.18,VALID,0,VALID,95.5534,VALID,0,VALID,22.919,VALID,164,VALID,0.947266,
2012-04-10, 01:28:04,VALID,1001.15,VALID,0,VALID,95.561,VALID,0,VALID,22.9208,VALID,164,VALID,0.589063,
2012-04-10, 01:29:04,VALID,1001.15,VALID,0,VALID,95.5762,VALID,0,VALID,22.919,VALID,164,VALID,0.832812,
2012-04-10, 01:30:04,VALID,1001.15,VALID,0,VALID,95.5991,VALID,0,VALID,22.9403,VALID,164,VALID,0.701172,
2012-04-10, 01:31:04,VALID,1001.17,VALID,0,VALID,95.5915,VALID,0,VALID,22.9403,VALID,164,VALID,0.869922,
2012-04-10, 01:32:04,VALID,1001.16,VALID,0,VALID,95.5762,VALID,0,VALID,22.9208,VALID,164,VALID,0.642578,
2012-04-10, 01:33:04,VALID,1001.17,VALID,0,VALID,95.5686,VALID,0,VALID,22.9403,VALID,164,VALID,0.611719,
2012-04-10, 01:34:04,VALID,1001.18,VALID,0,VALID,95.5762,VALID,0,VALID,22.9208,VALID,164,VALID,0.65625,
2012-04-10, 01:35:04,VALID,1001.18,VALID,0,VALID,95.5762,VALID,0,VALID,22.9403,VALID,164,VALID,0.489453,
2012-04-10, 01:36:04,VALID,1001.18,VALID,0,VALID,95.5762,VALID,0,VALID,22.8995,VALID,164,VALID,0.501953,
2012-04-10, 01:37:04,VALID,1001.19,VALID,0,VALID,95.5915,VALID,0,VALID,22.9208,VALID,162,VALID,0.60625,
2012-04-10, 01:38:04,VALID,1001.15,VALID,0,VALID,95.5686,VALID,0,VALID,22.9208,VALID,162,VALID,0.579687,
2012-04-10, 01:39:04,VALID,1001.16,VALID,0,VALID,95.561,VALID,0,VALID,22.9013,VALID,162,VALID,0.621875,
2012-04-10, 01:40:04,VALID,1001.15,VALID,0,VALID,95.5839,VALID,0,VALID,22.9013,VALID,162,VALID,0.474609,
2012-04-10, 01:41:04,VALID,1001.15,VALID,0,VALID,95.5839,VALID,0,VALID,22.9013,VALID,162,VALID,0.508984,
2012-04-10, 01:42:04,VALID,1001.13,VALID,0,VALID,95.561,VALID,0,VALID,22.8818,VALID,162,VALID,0.528906,
2012-04-10, 01:43:04,VALID,1001.16,VALID,0,VALID,95.5686,VALID,0,VALID,22.8623,VALID,162,VALID,0.608594,
2012-04-10, 01:44:04,VALID,1001.15,VALID,0,VALID,95.5686,VALID,0,VALID,22.8427,VALID,162,VALID,0.585938,
2012-04-10, 01:45:04,VALID,1001.16,VALID,0,VALID,95.5534,VALID,0,VALID,22.8215,VALID,162,VALID,0.609375,
2012-04-10, 01:46:04,VALID,1001.16,VALID,0,VALID,95.5686,VALID,0,VALID,22.8232,VALID,162,VALID,0.648828,
2012-04-10, 01:47:04,VALID,1001.17,VALID,0,VALID,95.5686,VALID,0,VALID,22.7842,VALID,162,VALID,0.569922,
2012-04-10, 01:48:04,VALID,1001.16,VALID,0,VALID,95.5534,VALID,0,VALID,22.7842,VALID,162,VALID,0.464063,
2012-04-10, 01:49:04,VALID,1001.16,VALID,0,VALID,95.5762,VALID,0,VALID,22.7842,VALID,162,VALID,0.353516,
2012-04-10, 01:50:04,VALID,1001.15,VALID,0,VALID,95.5762,VALID,0,VALID,22.7435,VALID,162,VALID,0.292969,
2012-04-10, 01:51:04,VALID,1001.18,VALID,0,VALID,95.5762,VALID,0,VALID,22.7452,VALID,162,VALID,0.320313,
2012-04-10, 01:52:04,VALID,1001.14,VALID,0,VALID,95.5534,VALID,0,VALID,22.724,VALID,162,VALID,0.430469,
2012-04-10, 01:53:04,VALID,1001.12,VALID,0,VALID,95.561,VALID,0,VALID,22.7452,VALID,162,VALID,0.498828,
2012-04-10, 01:54:04,VALID,1001.13,VALID,0,VALID,95.5457,VALID,0,VALID,22.724,VALID,162,VALID,0.483203,
2012-04-10, 01:55:04,VALID,1001.12,VALID,0,VALID,95.5534,VALID,0,VALID,22.724,VALID,162,VALID,0.388281,
2012-04-10, 01:56:04,VALID,1001.09,VALID,0,VALID,95.5686,VALID,0,VALID,22.7452,VALID,162,VALID,0.343359,
2012-04-10, 01:57:04,VALID,1001.1,VALID,0,VALID,95.561,VALID,0,VALID,22.7452,VALID,117,VALID,0.543359,
2012-04-10, 01:58:04,VALID,1001.09,VALID,0,VALID,95.5305,VALID,0,VALID,22.7257,VALID,117,VALID,0.525391,
2012-04-10, 01:59:04,VALID,1001.09,VALID,0,VALID,95.5457,VALID,0,VALID,22.724,VALID,117,VALID,0.547266,
2012-04-10, 02:00:04,VALID,1001.06,VALID,0,VALID,95.5457,VALID,0,VALID,22.7452,VALID,117,VALID,0.510938,
2012-04-10, 02:01:04,VALID,1001.08,VALID,0,VALID,95.561,VALID,0,VALID,22.7452,VALID,117,VALID,0.500781,
2012-04-10, 02:02:05,VALID,1001.07,VALID,0,VALID,95.5686,VALID,0,VALID,22.7435,VALID,117,VALID,0.384375,
2012-04-10, 02:03:05,VALID,1001.04,VALID,0,VALID,95.561,VALID,0,VALID,22.724,VALID,117,VALID,0.479688,
2012-04-10, 02:04:05,VALID,1001.04,VALID,0,VALID,95.561,VALID,0,VALID,22.7452,VALID,117,VALID,0.380469,
2012-04-10, 02:05:05,VALID,1001.03,VALID,0,VALID,95.561,VALID,0,VALID,22.724,VALID,117,VALID,0.233984,
2012-04-10, 02:06:05,VALID,1001.04,VALID,0,VALID,95.5457,VALID,0,VALID,22.7469,VALID,148,VALID,0.716406,
2012-04-10, 02:07:05,VALID,1001.01,VALID,0,VALID,95.5534,VALID,0,VALID,22.7274,VALID,156,VALID,0.778125,
2012-04-10, 02:08:05,VALID,1001,VALID,0,VALID,95.561,VALID,0,VALID,22.7079,VALID,156,VALID,0.815234,
2012-04-10, 02:09:05,VALID,1001.02,VALID,0,VALID,95.561,VALID,0,VALID,22.7079,VALID,153,VALID,0.851953,
2012-04-10, 02:10:05,VALID,1000.99,VALID,0,VALID,95.561,VALID,0,VALID,22.7079,VALID,146,VALID,0.981641,
2012-04-10, 02:11:05,VALID,1000.98,VALID,0,VALID,95.5534,VALID,0,VALID,22.7079,VALID,145,VALID,0.714063,
2012-04-10, 02:12:05,VALID,1000.98,VALID,0,VALID,95.5534,VALID,0,VALID,22.6884,VALID,145,VALID,0.669531,
2012-04-10, 02:13:05,VALID,1000.98,VALID,0,VALID,95.5686,VALID,0,VALID,22.6867,VALID,145,VALID,0.552344,
2012-04-10, 02:14:05,VALID,1000.96,VALID,0,VALID,95.561,VALID,0,VALID,22.6672,VALID,145,VALID,0.290234,
2012-04-10, 02:15:05,VALID,1000.97,VALID,0,VALID,95.5076,VALID,0,VALID,22.6689,VALID,145,VALID,0.0960938,
2012-04-10, 02:16:05,VALID,1000.95,VALID,0,VALID,95.5305,VALID,0,VALID,22.6299,VALID,145,VALID,0,
2012-04-10, 02:17:05,VALID,1000.94,VALID,0,VALID,95.5381,VALID,0,VALID,22.5892,VALID,145,VALID,0.478906,
2012-04-10, 02:18:05,VALID,1000.91,VALID,0,VALID,95.5381,VALID,0,VALID,22.6104,VALID,145,VALID,0.516406,
2012-04-10, 02:19:05,VALID,1000.94,VALID,0,VALID,95.5228,VALID,0,VALID,22.6104,VALID,145,VALID,0.244531,
2012-04-10, 02:20:05,VALID,1000.9,VALID,0,VALID,95.5457,VALID,0,VALID,22.6104,VALID,145,VALID,0.0113281,
2012-04-10, 02:21:05,VALID,1000.9,VALID,0,VALID,95.5381,VALID,0,VALID,22.6087,VALID,145,VALID,0,
2012-04-10, 02:22:05,VALID,1000.89,VALID,0,VALID,95.5534,VALID,0.104696,VALID,22.5679,VALID,145,VALID,0,
2012-04-10, 02:23:05,VALID,1000.89,VALID,0,VALID,95.5534,VALID,0,VALID,22.5892,VALID,145,VALID,0,
2012-04-10, 02:24:05,VALID,1000.91,VALID,0,VALID,95.5457,VALID,0,VALID,22.5892,VALID,145,VALID,0,
2012-04-10, 02:25:05,VALID,1000.92,VALID,0,VALID,95.5381,VALID,0,VALID,22.5696,VALID,145,VALID,0,
2012-04-10, 02:26:05,VALID,1000.91,VALID,0,VALID,95.5457,VALID,0,VALID,22.5501,VALID,145,VALID,0,
2012-04-10, 02:27:05,VALID,1000.92,VALID,0,VALID,95.5534,VALID,0,VALID,22.5289,VALID,145,VALID,0.175391,
2012-04-10, 02:28:05,VALID,1000.93,VALID,0,VALID,95.5686,VALID,0,VALID,22.5501,VALID,145,VALID,0.171484,
2012-04-10, 02:29:05,VALID,1000.95,VALID,0,VALID,95.561,VALID,0,VALID,22.5501,VALID,145,VALID,0.01875,
2012-04-10, 02:30:05,VALID,1000.92,VALID,0,VALID,95.5534,VALID,0,VALID,22.5306,VALID,145,VALID,0,
2012-04-10, 02:31:05,VALID,1000.89,VALID,0,VALID,95.5839,VALID,0,VALID,22.5111,VALID,145,VALID,0,
2012-04-10, 02:32:05,VALID,1000.9,VALID,0,VALID,95.561,VALID,0,VALID,22.5111,VALID,145,VALID,0.00820312,
2012-04-10, 02:33:05,VALID,1000.89,VALID,0,VALID,95.5762,VALID,0,VALID,22.5111,VALID,145,VALID,0.339453,
2012-04-10, 02:34:05,VALID,1000.86,VALID,0,VALID,95.561,VALID,0,VALID,22.5111,VALID,145,VALID,0.228516,
2012-04-10, 02:35:05,VALID,1000.9,VALID,0,VALID,95.5839,VALID,0,VALID,22.5111,VALID,145,VALID,0.185547,
2012-04-10, 02:36:05,VALID,1000.87,VALID,0,VALID,95.5839,VALID,0,VALID,22.4916,VALID,145,VALID,0,
2012-04-10, 02:37:05,VALID,1000.88,VALID,0,VALID,95.5762,VALID,0,VALID,22.4916,VALID,145,VALID,0,
2012-04-10, 02:38:05,VALID,1000.85,VALID,0,VALID,95.5915,VALID,0,VALID,22.4916,VALID,145,VALID,0,
2012-04-10, 02:39:05,VALID,1000.85,VALID,0,VALID,95.5839,VALID,0,VALID,22.4721,VALID,145,VALID,0,
2012-04-10, 02:40:05,VALID,1000.83,VALID,0,VALID,95.6068,VALID,0,VALID,22.4526,VALID,145,VALID,0,
2012-04-10, 02:41:05,VALID,1000.85,VALID,0,VALID,95.6068,VALID,0,VALID,22.4526,VALID,145,VALID,0.438281,
2012-04-10, 02:42:05,VALID,1000.87,VALID,0,VALID,95.5762,VALID,0,VALID,22.4721,VALID,68,VALID,0.621875,
2012-04-10, 02:43:05,VALID,1000.85,VALID,0,VALID,95.5915,VALID,0.104696,VALID,22.4314,VALID,42,VALID,0.304297,
2012-04-10, 02:44:05,VALID,1000.85,VALID,0,VALID,95.5915,VALID,0,VALID,22.4314,VALID,42,VALID,0.307422,
2012-04-10, 02:45:05,VALID,1000.85,VALID,0,VALID,95.6068,VALID,0.104696,VALID,22.4314,VALID,42,VALID,0.191797,
2012-04-10, 02:46:05,VALID,1000.82,VALID,0,VALID,95.5991,VALID,0,VALID,22.4526,VALID,42,VALID,0,
2012-04-10, 02:47:05,VALID,1000.83,VALID,0,VALID,95.6144,VALID,0,VALID,22.4314,VALID,42,VALID,0,
2012-04-10, 02:48:05,VALID,1000.81,VALID,0,VALID,95.6068,VALID,0,VALID,22.4526,VALID,42,VALID,0.144141,
2012-04-10, 02:49:05,VALID,1000.84,VALID,0,VALID,95.6068,VALID,0,VALID,22.4526,VALID,42,VALID,0.269531,
2012-04-10, 02:50:05,VALID,1000.86,VALID,0,VALID,95.5762,VALID,0,VALID,22.4721,VALID,42,VALID,0.278906,
2012-04-10, 02:51:05,VALID,1000.86,VALID,0,VALID,95.5686,VALID,0,VALID,22.4704,VALID,42,VALID,0.366016,
2012-04-10, 02:52:05,VALID,1000.89,VALID,0,VALID,95.5686,VALID,0,VALID,22.5111,VALID,42,VALID,0.339844,
2012-04-10, 02:53:05,VALID,1000.9,VALID,0,VALID,95.5686,VALID,0,VALID,22.5306,VALID,42,VALID,0.562891,
2012-04-10, 02:54:05,VALID,1000.84,VALID,0,VALID,95.561,VALID,0,VALID,22.5484,VALID,152,VALID,0.673437,
2012-04-10, 02:55:05,VALID,1000.88,VALID,0,VALID,95.5686,VALID,0,VALID,22.5484,VALID,152,VALID,0.947266,
2012-04-10, 02:56:05,VALID,1000.88,VALID,0,VALID,95.561,VALID,0,VALID,22.5892,VALID,163,VALID,0.779297,
2012-04-10, 02:57:05,VALID,1000.86,VALID,0,VALID,95.5762,VALID,0.104696,VALID,22.6087,VALID,163,VALID,0.926953,
2012-04-10, 02:58:05,VALID,1000.83,VALID,0,VALID,95.5686,VALID,0,VALID,22.6087,VALID,164,VALID,0.983594,
2012-04-10, 02:59:05,VALID,1000.86,VALID,0,VALID,95.5686,VALID,0,VALID,22.6282,VALID,164,VALID,0.927734,
2012-04-10, 03:00:05,VALID,1000.83,VALID,0,VALID,95.5839,VALID,0,VALID,22.6069,VALID,164,VALID,0.686719,
2012-04-10, 03:01:05,VALID,1000.82,VALID,0,VALID,95.5839,VALID,0,VALID,22.6069,VALID,164,VALID,0.901953,
2012-04-10, 03:02:05,VALID,1000.84,VALID,0,VALID,95.6068,VALID,0,VALID,22.6282,VALID,164,VALID,0.910937,
2012-04-10, 03:03:05,VALID,1000.83,VALID,0,VALID,95.6068,VALID,0,VALID,22.6282,VALID,164,VALID,0.802344,
2012-04-10, 03:04:05,VALID,1000.83,VALID,0,VALID,95.5991,VALID,0,VALID,22.6282,VALID,164,VALID,0.702734,
2012-04-10, 03:05:05,VALID,1000.82,VALID,0,VALID,95.5915,VALID,0,VALID,22.6282,VALID,146,VALID,0.954297,
2012-04-10, 03:06:05,VALID,1000.84,VALID,0,VALID,95.5915,VALID,0,VALID,22.5892,VALID,144,VALID,0.785937,
2012-04-10, 03:07:05,VALID,1000.84,VALID,0,VALID,95.6068,VALID,0,VALID,22.5892,VALID,126,VALID,0.747656,
2012-04-10, 03:08:05,VALID,1000.83,VALID,0,VALID,95.6297,VALID,0,VALID,22.5696,VALID,126,VALID,0.266016,
2012-04-10, 03:09:05,VALID,1000.84,VALID,0,VALID,95.6144,VALID,0,VALID,22.5501,VALID,126,VALID,0.28125,
2012-04-10, 03:10:05,VALID,1000.82,VALID,0,VALID,95.6144,VALID,0,VALID,22.5306,VALID,126,VALID,0.487109,
2012-04-10, 03:11:05,VALID,1000.84,VALID,0,VALID,95.5991,VALID,0,VALID,22.5323,VALID,126,VALID,0.444922,
2012-04-10, 03:12:05,VALID,1000.8,VALID,0,VALID,95.622,VALID,0,VALID,22.4916,VALID,126,VALID,0.467578,
2012-04-10, 03:13:05,VALID,1000.84,VALID,0,VALID,95.5991,VALID,0,VALID,22.4933,VALID,126,VALID,0.469922,
2012-04-10, 03:14:05,VALID,1000.82,VALID,0,VALID,95.6144,VALID,0,VALID,22.4526,VALID,126,VALID,0.287891,
2012-04-10, 03:15:05,VALID,1000.84,VALID,0,VALID,95.5915,VALID,0,VALID,22.4543,VALID,126,VALID,0.441016,
2012-04-10, 03:16:05,VALID,1000.81,VALID,0,VALID,95.5915,VALID,0,VALID,22.4136,VALID,126,VALID,0.139062,
2012-04-10, 03:17:05,VALID,1000.83,VALID,0,VALID,95.6144,VALID,0,VALID,22.4153,VALID,126,VALID,0.075,
2012-04-10, 03:18:05,VALID,1000.83,VALID,0,VALID,95.5915,VALID,0,VALID,22.3746,VALID,126,VALID,0.0382813,
2012-04-10, 03:19:05,VALID,1000.84,VALID,0,VALID,95.622,VALID,0,VALID,22.3746,VALID,126,VALID,0,
2012-04-10, 03:20:05,VALID,1000.84,VALID,0,VALID,95.6144,VALID,0,VALID,22.3746,VALID,126,VALID,0,
2012-04-10, 03:21:05,VALID,1000.79,VALID,0,VALID,95.6144,VALID,0,VALID,22.3746,VALID,126,VALID,0.00351562,
2012-04-10, 03:22:05,VALID,1000.8,VALID,0,VALID,95.6144,VALID,0,VALID,22.3551,VALID,126,VALID,0,
2012-04-10, 03:23:05,VALID,1000.8,VALID,0,VALID,95.6373,VALID,0,VALID,22.3551,VALID,126,VALID,0,
2012-04-10, 03:24:05,VALID,1000.77,VALID,0,VALID,95.6068,VALID,0,VALID,22.3339,VALID,126,VALID,0.550391,
2012-04-10, 03:25:05,VALID,1000.76,VALID,0,VALID,95.5991,VALID,0.104696,VALID,22.3144,VALID,110,VALID,0.688672,
2012-04-10, 03:26:05,VALID,1000.76,VALID,0,VALID,95.5991,VALID,0,VALID,22.3339,VALID,85,VALID,0.898438,
2012-04-10, 03:27:05,VALID,1000.76,VALID,0,VALID,95.6068,VALID,0,VALID,22.3339,VALID,81,VALID,0.828906,
2012-04-10, 03:28:05,VALID,1000.78,VALID,0,VALID,95.622,VALID,0,VALID,22.3534,VALID,71,VALID,0.8375,
2012-04-10, 03:29:05,VALID,1000.78,VALID,0,VALID,95.622,VALID,0,VALID,22.3534,VALID,61,VALID,0.736719,
2012-04-10, 03:30:05,VALID,1000.81,VALID,0,VALID,95.6068,VALID,0,VALID,22.3746,VALID,56,VALID,0.731641,
2012-04-10, 03:31:05,VALID,1000.79,VALID,0,VALID,95.6144,VALID,0,VALID,22.3356,VALID,50,VALID,0.642187,
2012-04-10, 03:32:05,VALID,1000.83,VALID,0,VALID,95.6144,VALID,0,VALID,22.3161,VALID,50,VALID,0.458594,
2012-04-10, 03:33:05,VALID,1000.83,VALID,0,VALID,95.6525,VALID,0,VALID,22.3161,VALID,50,VALID,0.322266,
2012-04-10, 03:34:05,VALID,1000.81,VALID,0,VALID,95.6297,VALID,0,VALID,22.2949,VALID,50,VALID,0,
2012-04-10, 03:35:05,VALID,1000.82,VALID,0,VALID,95.6297,VALID,0,VALID,22.2754,VALID,50,VALID,0,
2012-04-10, 03:36:05,VALID,1000.83,VALID,0,VALID,95.6525,VALID,0,VALID,22.2559,VALID,50,VALID,0,
2012-04-10, 03:37:05,VALID,1000.81,VALID,0,VALID,95.6525,VALID,0,VALID,22.2169,VALID,50,VALID,0.0480469,
2012-04-10, 03:38:05,VALID,1000.8,VALID,0,VALID,95.6373,VALID,0,VALID,22.2169,VALID,50,VALID,0.00507812,
2012-04-10, 03:39:05,VALID,1000.81,VALID,0,VALID,95.622,VALID,0.104696,VALID,22.2381,VALID,50,VALID,0.00234375,
2012-04-10, 03:40:05,VALID,1000.79,VALID,0,VALID,95.6449,VALID,0,VALID,22.1762,VALID,50,VALID,0.053125,
2012-04-10, 03:41:05,VALID,1000.77,VALID,0,VALID,95.6297,VALID,0,VALID,22.1779,VALID,50,VALID,0.00117188,
2012-04-10, 03:42:05,VALID,1000.77,VALID,0,VALID,95.6449,VALID,0,VALID,22.1584,VALID,50,VALID,0.0875,
2012-04-10, 03:43:05,VALID,1000.79,VALID,0,VALID,95.6373,VALID,0,VALID,22.16,VALID,50,VALID,0,
2012-04-10, 03:44:05,VALID,1000.78,VALID,0,VALID,95.6602,VALID,0,VALID,22.1795,VALID,50,VALID,0,
2012-04-10, 03:45:05,VALID,1000.83,VALID,0,VALID,95.6602,VALID,0,VALID,22.1389,VALID,50,VALID,0,
2012-04-10, 03:46:05,VALID,1000.83,VALID,0,VALID,95.6525,VALID,0,VALID,22.1584,VALID,53,VALID,0.495703,